• In Netherlands
  • List of Countries
  • For 7 days
  • Water Temperature
  • Satellite Maps
  • Weather Map
  • Weather Widgets
  • user-avatar
    Login

    Hourly Weather Orange Walk

    Today, 20 February, Monday

    Time Temperature Precipitation Wind Pressure Humidity
    00:00 +23°C° 0 mm 2 mps 758 mmHg 98%
    01:00 +23°C° 0 mm 2 mps 758 mmHg 98%
    02:00 +23°C° 0 mm 2 mps 758 mmHg 97%
    03:00 +24°C° 0 mm 2 mps 757 mmHg 97%
    04:00 +24°C° 0 mm 2 mps 757 mmHg 97%
    05:00 +24°C° 0 mm 2 mps 758 mmHg 96%
    06:00 +24°C° 0 mm 2 mps 758 mmHg 95%
    07:00 +26°C° 0 mm 3 mps 758 mmHg 84%
    08:00 +28°C° 0 mm 3 mps 759 mmHg 73%
    09:00 +30°C° 0 mm 4 mps 759 mmHg 62%
    10:00 +32°C° 0 mm 4 mps 759 mmHg 55%
    11:00 +34°C° 0 mm 4 mps 759 mmHg 48%
    12:00 +35°C° 0 mm 4 mps 758 mmHg 41%
    13:00 +35°C° 0 mm 4 mps 758 mmHg 41%
    14:00 +34°C° 0 mm 4 mps 757 mmHg 41%
    15:00 +34°C° 0 mm 4 mps 757 mmHg 41%
    16:00 +31°C° 0 mm 3 mps 757 mmHg 50%
    17:00 +29°C° 0 mm 3 mps 757 mmHg 59%
    18:00 +27°C° 0 mm 2 mps 757 mmHg 68%
    19:00 +27°C° 0 mm 2 mps 758 mmHg 76%
    20:00 +26°C° 0 mm 2 mps 758 mmHg 83%
    21:00 +25°C° 0 mm 2 mps 759 mmHg 91%
    22:00 +24°C° 0 mm 2 mps 759 mmHg 92%
    23:00 +24°C° 0 mm 2 mps 759 mmHg 93%

    Tomorrow, 21 February, Tuesday

    Time Temperature Precipitation Wind Pressure Humidity
    00:00 +24°C° 0 mm 2 mps 759 mmHg 94%
    01:00 +24°C° 0 mm 2 mps 758 mmHg 93%
    02:00 +25°C° 0 mm 2 mps 758 mmHg 91%
    03:00 +25°C° 0 mm 2 mps 758 mmHg 90%
    04:00 +25°C° 0 mm 2 mps 758 mmHg 89%
    05:00 +26°C° 0 mm 2 mps 758 mmHg 88%
    06:00 +26°C° 0 mm 1 mps 758 mmHg 88%
    07:00 +27°C° 0 mm 2 mps 758 mmHg 83%
    08:00 +28°C° 0 mm 2 mps 759 mmHg 77%
    09:00 +29°C° 0 mm 2 mps 759 mmHg 72%
    10:00 +30°C° 0 mm 2 mps 759 mmHg 67%
    11:00 +31°C° 0 mm 2 mps 759 mmHg 61%
    12:00 +32°C° 0 mm 2 mps 759 mmHg 56%
    13:00 +34°C° 0 mm 2 mps 758 mmHg 52%
    14:00 +35°C° 0 mm 2 mps 757 mmHg 49%
    15:00 +35°C° 0 mm 1 mps 756 mmHg 45%
    16:00 +32°C° 0.1 mm 1 mps 756 mmHg 55%
    17:00 +30°C° 0.1 mm 1 mps 757 mmHg 64%
    18:00 +28°C° 0.1 mm 2 mps 757 mmHg 74%
    19:00 +26°C° 0.2 mm 1 mps 757 mmHg 82%
    20:00 +25°C° 0.2 mm 1 mps 758 mmHg 90%
    21:00 +23°C° 0.2 mm 1 mps 758 mmHg 98%
    22:00 +24°C° 0.4 mm 1 mps 758 mmHg 97%
    23:00 +24°C° 0.4 mm 1 mps 758 mmHg 97%

    Day after tomorrow, 22 February, Wednesday

    Time Temperature Precipitation Wind Pressure Humidity
    00:00 +24°C° 0.4 mm 1 mps 758 mmHg 97%
    01:00 +23°C° 0.1 mm 1 mps 758 mmHg 97%
    02:00 +23°C° 0.1 mm 2 mps 757 mmHg 97%
    03:00 +23°C° 0.1 mm 2 mps 757 mmHg 97%
    04:00 +23°C° 0 mm 2 mps 757 mmHg 97%
    05:00 +21°C° 0 mm 2 mps 757 mmHg 97%
    06:00 +21°C° 0 mm 2 mps 757 mmHg 96%
    07:00 +24°C° 0 mm 3 mps 758 mmHg 84%
    08:00 +25°C° 0 mm 3 mps 758 mmHg 73%
    09:00 +26°C° 0 mm 3 mps 759 mmHg 61%
    10:00 +28°C° 0 mm 3 mps 758 mmHg 51%
    11:00 +30°C° 0 mm 3 mps 758 mmHg 41%
    12:00 +33°C° 0 mm 4 mps 757 mmHg 31%
    13:00 +33°C° 0 mm 4 mps 756 mmHg 28%
    14:00 +34°C° 0 mm 4 mps 755 mmHg 26%
    15:00 +35°C° 0 mm 4 mps 754 mmHg 23%
    16:00 +31°C° 0 mm 3 mps 755 mmHg 28%
    17:00 +29°C° 0 mm 3 mps 755 mmHg 33%
    18:00 +27°C° 0 mm 2 mps 755 mmHg 37%
    19:00 +26°C° 0 mm 2 mps 756 mmHg 41%
    20:00 +25°C° 0 mm 3 mps 757 mmHg 45%
    21:00 +22°C° 0 mm 3 mps 757 mmHg 49%
    22:00 +21°C° 0 mm 3 mps 757 mmHg 56%
    23:00 +20°C° 0 mm 2 mps 757 mmHg 63%

    23 February, Thursday

    Time Temperature Precipitation Wind Pressure Humidity
    00:00 +18°C° 0 mm 2 mps 757 mmHg 70%
    01:00 +17°C° 0 mm 2 mps 756 mmHg 75%
    02:00 +17°C° 0 mm 2 mps 756 mmHg 79%
    03:00 +16°C° 0 mm 2 mps 755 mmHg 84%
    04:00 +16°C° 0 mm 2 mps 756 mmHg 86%
    05:00 +16°C° 0 mm 2 mps 756 mmHg 88%
    06:00 +15°C° 0 mm 2 mps 756 mmHg 91%
    07:00 +18°C° 0 mm 2 mps 756 mmHg 80%
    08:00 +21°C° 0 mm 2 mps 757 mmHg 70%
    09:00 +24°C° 0 mm 2 mps 757 mmHg 59%
    10:00 +27°C° 0 mm 2 mps 757 mmHg 51%
    11:00 +29°C° 0 mm 2 mps 756 mmHg 43%
    12:00 +31°C° 0 mm 2 mps 756 mmHg 35%
    13:00 +32°C° 0 mm 2 mps 755 mmHg 33%
    14:00 +34°C° 0 mm 2 mps 754 mmHg 30%
    15:00 +34°C° 0 mm 2 mps 753 mmHg 28%
    16:00 +30°C° 0 mm 2 mps 753 mmHg 37%
    17:00 +28°C° 0 mm 2 mps 753 mmHg 47%
    18:00 +25°C° 0 mm 1 mps 753 mmHg 56%
    19:00 +24°C° 0 mm 1 mps 754 mmHg 63%
    20:00 +22°C° 0 mm 1 mps 755 mmHg 71%
    21:00 +21°C° 0 mm 1 mps 755 mmHg 79%
    22:00 +20°C° 0 mm 1 mps 755 mmHg 83%
    23:00 +20°C° 0 mm 1 mps 755 mmHg 88%

    24 February, Friday

    Time Temperature Precipitation Wind Pressure Humidity
    00:00 +19°C° 0 mm 1 mps 755 mmHg 93%
    01:00 +18°C° 0 mm 1 mps 755 mmHg 93%
    02:00 +18°C° 0 mm 1 mps 755 mmHg 94%
    03:00 +18°C° 0 mm 1 mps 754 mmHg 94%
    04:00 +16°C° 0 mm 1 mps 755 mmHg 95%
    05:00 +15°C° 0 mm 0 mps 755 mmHg 96%
    06:00 +14°C° 0 mm 0 mps 755 mmHg 97%
    07:00 +20°C° 0 mm 1 mps 755 mmHg 83%
    08:00 +24°C° 0 mm 1 mps 756 mmHg 69%
    09:00 +28°C° 0 mm 1 mps 756 mmHg 56%
    10:00 +30°C° 0 mm 1 mps 756 mmHg 48%
    11:00 +32°C° 0 mm 1 mps 756 mmHg 40%
    12:00 +35°C° 0 mm 2 mps 755 mmHg 32%
    13:00 +36°C° 0 mm 2 mps 754 mmHg 31%
    14:00 +36°C° 0 mm 2 mps 754 mmHg 30%
    15:00 +37°C° 0 mm 2 mps 753 mmHg 28%
    16:00 +34°C° 0 mm 2 mps 753 mmHg 38%
    17:00 +30°C° 0 mm 2 mps 753 mmHg 47%
    18:00 +28°C° 0 mm 2 mps 754 mmHg 57%
    19:00 +26°C° 0 mm 2 mps 754 mmHg 66%
    20:00 +24°C° 0 mm 2 mps 755 mmHg 76%
    21:00 +21°C° 0 mm 2 mps 756 mmHg 86%
    22:00 +21°C° 0 mm 2 mps 756 mmHg 89%
    23:00 +20°C° 0 mm 2 mps 756 mmHg 92%

    25 February, Saturday

    Time Temperature Precipitation Wind Pressure Humidity
    00:00 +21°C° 0 mm 1 mps 756 mmHg 95%
    01:00 +21°C° 0 mm 1 mps 756 mmHg 96%
    02:00 +20°C° 0 mm 1 mps 756 mmHg 97%
    03:00 +20°C° 0 mm 1 mps 756 mmHg 98%
    04:00 +20°C° 0 mm 1 mps 756 mmHg 98%
    05:00 +20°C° 0 mm 1 mps 757 mmHg 99%
    06:00 +20°C° 0 mm 1 mps 757 mmHg 99%
    07:00 +23°C° 0 mm 1 mps 758 mmHg 87%
    08:00 +26°C° 0 mm 1 mps 758 mmHg 75%
    09:00 +29°C° 0 mm 2 mps 759 mmHg 64%
    10:00 +31°C° 0 mm 2 mps 758 mmHg 55%
    11:00 +34°C° 0 mm 2 mps 758 mmHg 47%
    12:00 +36°C° 0 mm 2 mps 758 mmHg 39%
    13:00 +36°C° 0 mm 2 mps 757 mmHg 37%
    14:00 +36°C° 0 mm 2 mps 756 mmHg 36%
    15:00 +36°C° 0 mm 2 mps 756 mmHg 34%
    16:00 +34°C° 0 mm 2 mps 756 mmHg 42%
    17:00 +31°C° 0 mm 2 mps 756 mmHg 50%
    18:00 +29°C° 0 mm 2 mps 756 mmHg 57%
    19:00 +27°C° 0 mm 2 mps 757 mmHg 66%
    20:00 +25°C° 0 mm 2 mps 757 mmHg 75%
    21:00 +24°C° 0 mm 2 mps 758 mmHg 83%
    22:00 +23°C° 0 mm 2 mps 758 mmHg 87%
    23:00 +21°C° 0 mm 2 mps 758 mmHg 91%
    Show more